Location: Krasnoyarskiy Pitomnik
(51.1333°N, 71.6167°E)
Time: 05:43:58
(UTC+00:00)

Transit 4A - Pass Details

Date: 12 April 2024
Orbit: 871 x 971 km, 66.8° (Epoch: 28 May)

Event Time Altitude Azimuth Distance (km) Brightness Sun altitude
Rises 15:52:29 0° 317° (NW) 3,484 12.6 -15.8°
Reaches altitude 10° 15:55:28 10° 331° (NNW) 2,536 11.3 -16.2°
Maximum altitude 16:00:12 25° 25° (NNE) 1,707 9.4 -16.8°
Enters shadow 16:04:38 11° 78° (ENE) 2,443 9.8 -17.3°
